{"data":{"norad_id":60996,"epoch":"2026-05-25T00:56:08.006784Z","epoch_age_seconds":65679,"freshness":"FRESH","line1":"1 60996U 24158G   26145.03898156  .00000525  00000+0  91888-5 0  9998","line2":"2 60996  53.1612 265.0707 0001226  68.4453 291.6695 15.69713053 99576","mean_motion":15.69713053,"eccentricity":0.0001226,"inclination_deg":53.1612,"raan_deg":265.0707,"arg_perigee_deg":68.4453,"mean_anomaly_deg":291.6695,"bstar":9.1888e-6,"rev_number":9957,"period_min":91.736511794172,"perigee_km":358.89195289186,"apogee_km":360.54407494127,"semimajor_km":6737.8550139166,"source":"CELESTRAK","updated_at":"2026-05-25T13:38:19.323285Z"}}